Regional Weather Roundup
Issued by NWS Charleston, SC

Current Version | Previous Version | Graphics & Text | Print | Product List | Glossary On
Versions: 1 2 3 4 5 6 7 8 9 10 11 12 13 14 15 16 17 18 19 20 21 22 23 24 25 26 27 28 29 30 31 32 33 34 35 36 37 38 39 40 41 42 43 44 45 46 47 48 49 50
369 ASUS42 KCHS 290228 RWRCHS REGIONAL WEATHER ROUNDUP NATIONAL WEATHER SERVICE CHARLESTON SC 1000 PM EDT THU APR 28 2016 NOTE: "FAIR" INDICATES FEW OR NO CLOUDS BELOW 12,000 FEET WITH NO SIGNIFICANT WEATHER AND/OR OBSTRUCTIONS TO VISIBILITY. NOT ALL STATIONS ARE QUALITY CONTROLLED. USE DATA WITH CAUTION... ESPECIALLY DEWPOINT OBSERVATIONS. SCZ027-030-031-034>040-042>050-290300- ...SOUTHEAST SOUTH CAROLINA... CITY SKY/WX TMP DP RH WIND PRES REMARKS N CHARLESTON CLEAR 70 67 90 SW7 29.93R WATERFRONT PRK N/A 73 69 87 SW6 29.91R MOUNT PLEASANT FAIR 72 70 94 S6 29.93S JOHNS ISLAND FAIR 73 70 88 SW7 29.94R PINOPOLIS N/A 72 68 88 VRB3 29.83R MONCKS CORNER FAIR 66 64 94 SW6 29.93S SUMMERVILLE FAIR 70 70 100 CALM 29.94R BEAUFORT MCAS CLOUDY 73 69 87 SW7 29.95R BEAUFORT ARPT FAIR 75 68 78 SW6 29.94S HILTON HEAD IS PTCLDY 73 72 94 S3 29.96S WALTERBORO CLEAR 77 66 69 SW8 29.95R ALLENDALE FAIR 73 66 78 CALM 29.94S ...SOUTHERN MIDLANDS AND PEE DEE... CITY SKY/WX TMP DP RH WIND PRES REMARKS GEORGETOWN FAIR 68 66 94 S7 29.93S KINGSTREE FAIR 70 64 83 S3 29.91S ORANGEBURG CLEAR 72 67 84 S6 29.93R BARNWELL FAIR 75 73 94 SW8 29.95R AIKEN FAIR 70 68 94 S6 29.96S MANNING NOT AVBL COLUMBIA CLEAR 77 67 71 SW9 29.89R SUMTER NOT AVBL FLORENCE CLEAR 74 65 73 SW10 29.89R MYRTLE BEACH NOT AVBL N MYRTLE BEACH CLEAR 71 67 87 S13 29.92R $$ GAZ063-065-086>088-099>101-113>116-118-119-134>141-150-290300- ...SOUTHEAST GEORGIA... CITY SKY/WX TMP DP RH WIND PRES REMARKS SAVANNAH ARPT PTCLDY 75 67 76 SW6 29.96R HUNTER AAF NOT AVBL FORT STEWART NOT AVBL STATESBORO PTCLDY 76 73 90 SW3 29.96S SYLVANIA CLOUDY 72 70 94 CALM 29.96S CLAXTON FAIR 69 69 100 CALM 29.97S FOG ...CSRA...CENTRAL AND FAR SOUTHEAST GEORGIA... CITY SKY/WX TMP DP RH WIND PRES REMARKS THOMSON CLEAR 75 70 83 SW3 29.99R AUGUSTA-BUSH CLEAR 74 70 87 SW9 29.92R AUGUSTA-DANIEL CLEAR 79 67 66 VRB6 29.94R SWAINSBORO MOCLDY 73 68 83 SW3 29.98R VIDALIA PTCLDY 73 70 88 CALM 29.98R EASTMAN FAIR 70 70 100 CALM 30.00S HAZLEHURST FAIR 74 69 85 CALM 29.97R ALMA PTCLDY 71 68 90 CALM 29.97R WAYCROSS CLEAR 71 70 97 SW3 29.98R JESUP FAIR 72 70 94 CALM 29.98R BAXLEY FAIR 72 72 100 CALM 29.97R BRUNSWICK PTCLDY 77 72 83 SW5 29.99R SAINT SIMONS PTCLDY 72 70 93 CALM 29.98R $$ SCZ027-028-034-036>038-045-046-048>050-GAZ119-141-290300- ...LAKE AND SUPPLEMENTAL COASTAL OBSERVATIONS... STATION/POSITION TIME TEMP WIND PRES WAVE SWELL AIR SEA DIR/SP/G HT/PER HT/PER/DIR (UTC) (F) (DEG/KT/KT) (MB) (FT/S) (FT/S/D) WINYAH BAY 0145 72 210/ 8 1012.0S LAKE MURRAY 0100 79 230/ 7/ 11 1011.2R ACE BASIN NERRS 0145 72 CALM 1014.0R FORT PULASKI 0200 71 1014.8R SAPELO ISLAND 0200 74 210/ 5 1015.0R $$ ANZ835-935-AMZ111-154-330-350-352-354-370-450-454-472-290300- ...C-MAN AND BUOY OBSERVATIONS... STATION/POSITION TIME TEMP WIND PRES WAVE SWELL AIR SEA DIR/SP/G HT/PER HT/PER/DIR (UTC) (F) (DEG/KT/KT) (MB) (FT/S) (FT/S/D) BUOY 41004 0050 73 71 200/ 14/ 16 1013.1 3/ 5 2/ 9 BUOY 41008 NOT AVBL FOLLY BEACH CMAN 0200 72 230/ 9/ 12 1013.9R CAPERS NEARSHORE 0108 71 71 210/ 10/ 12 1013.1R FRIPP NEARSHORE 0108 73 72 220/ 14/ 17 1013.0R STATION/POSITION TIME TEMP WIND PRES WAVE SWELL AIR SEA DIR/SP/G HT/PER HT/PER/DIR (UTC) (F) (DEG/KT/KT) (MB) (FT/S) (FT/S/D) 5E ST. MARYS GA 0121 72 N/A 2/11 FRYING PAN BUOY 0100 72 70 200/ 10/ 12 1013.5R BUOY 41025 0050 73 72 220/ 14/ 17 1012.6 4/ 6 2/110/10 CAPE LOOKOUT NC 0200 69 200/ 6/ 7 1012.9R BUOY 41002 0050 71 71 170/ 10/ 12 1016.6 2/10 2/ 70/10 BUOY 41010 0120 76 76 190/ 6/ 8 1016.6R ST AUGUSTINE FL 0200 76 71 210/ 6/ 7 1016.7R $$

USA.gov is the U.S. government's official web portal to all federal, state and local government web resources and services.